STARLINK-35827

Last updated on Sun Dec 07 2025 00:02:05 GMT+0000 (Coordinated Universal Time)

1 66365U 25254T 25340.58335648 -.00101030 00000+0 -18296-2 0 9994 2 66365 53.1599 305.9665 0000994 75.8311 8.9685 15.49346155 5904
UTC large
Height (km)
Speed (km/s)
/
Latitude / Longitude
Inclination (degrees)
Orbital Period (minutes)
Azimuth
Elevation
Range (km)
Doppler Factor

Next 0 passes for location: London (51.5072 / 0.1276)

Sorry there are no passes over London.